When you browse on this site, cookies collect data to enhance your experience and personalize the content and advertising you see.
Visit our Privacy Policy to learn more. By continuing to use the site, you agree to this use of cookies and data.
  • In Österreich
  • Länderverzeichnis
  • Für 7 Tage
  • Wassertemperatur
  • Wetterkarte
  • News
  • Widgets
  • user-avatar
    Anmelden

    Stündliche Wetter Eisenstadt

    Heute, 6 Juni, Samstag

    Zeit Temperatur Niederschläge Wind Luftdruck Luftfeuchtigkeit
    00:00 +12°C° 0 mm 1 m/S 715 mmHg 88%
    01:00 +12°C° 0 mm 1 m/S 716 mmHg 88%
    02:00 +12°C° 0 mm 1 m/S 716 mmHg 89%
    03:00 +11°C° 0 mm 1 m/S 716 mmHg 90%
    04:00 +11°C° 0 mm 1 m/S 716 mmHg 90%
    05:00 +13°C° 0 mm 1 m/S 717 mmHg 83%
    06:00 +15°C° 0 mm 1 m/S 717 mmHg 77%
    07:00 +16°C° 0 mm 1 m/S 717 mmHg 70%
    08:00 +17°C° 0 mm 2 m/S 717 mmHg 66%
    09:00 +18°C° 0 mm 3 m/S 717 mmHg 61%
    10:00 +19°C° 0 mm 3 m/S 718 mmHg 57%
    11:00 +20°C° 0 mm 3 m/S 717 mmHg 58%
    12:00 +21°C° 0 mm 3 m/S 717 mmHg 58%
    13:00 +22°C° 0 mm 4 m/S 716 mmHg 58%
    14:00 +22°C° 0 mm 4 m/S 716 mmHg 59%
    15:00 +22°C° 0 mm 4 m/S 716 mmHg 61%
    16:00 +22°C° 0 mm 4 m/S 715 mmHg 63%
    17:00 +21°C° 0.1 mm 3 m/S 715 mmHg 70%
    18:00 +20°C° 0.1 mm 3 m/S 715 mmHg 77%
    19:00 +19°C° 0.1 mm 2 m/S 714 mmHg 85%
    20:00 +18°C° 0 mm 2 m/S 715 mmHg 88%
    21:00 +17°C° 0 mm 2 m/S 715 mmHg 90%
    22:00 +16°C° 0 mm 1 m/S 715 mmHg 93%
    23:00 +15°C° 0.2 mm 1 m/S 715 mmHg 93%

    Morgen, 7 Juni, Sonntag

    Zeit Temperatur Niederschläge Wind Luftdruck Luftfeuchtigkeit
    00:00 +15°C° 0.2 mm 1 m/S 715 mmHg 93%
    01:00 +15°C° 0.2 mm 1 m/S 716 mmHg 93%
    02:00 +15°C° 0.3 mm 1 m/S 715 mmHg 94%
    03:00 +14°C° 0.3 mm 1 m/S 715 mmHg 95%
    04:00 +14°C° 0.3 mm 2 m/S 715 mmHg 95%
    05:00 +15°C° 0 mm 2 m/S 715 mmHg 92%
    06:00 +16°C° 0 mm 2 m/S 716 mmHg 89%
    07:00 +17°C° 0 mm 2 m/S 716 mmHg 85%
    08:00 +19°C° 0 mm 1 m/S 716 mmHg 81%
    09:00 +20°C° 0 mm 1 m/S 716 mmHg 76%
    10:00 +21°C° 0 mm 1 m/S 716 mmHg 72%
    11:00 +21°C° 0 mm 2 m/S 716 mmHg 68%
    12:00 +23°C° 0 mm 2 m/S 715 mmHg 65%
    13:00 +24°C° 0 mm 3 m/S 715 mmHg 61%
    14:00 +24°C° 0.2 mm 3 m/S 715 mmHg 62%
    15:00 +24°C° 0.2 mm 3 m/S 715 mmHg 64%
    16:00 +23°C° 0.2 mm 4 m/S 715 mmHg 65%
    17:00 +22°C° 0.4 mm 3 m/S 715 mmHg 71%
    18:00 +20°C° 0.4 mm 2 m/S 715 mmHg 77%
    19:00 +19°C° 0.4 mm 2 m/S 714 mmHg 84%
    20:00 +18°C° 0.7 mm 2 m/S 715 mmHg 86%
    21:00 +16°C° 0.7 mm 2 m/S 715 mmHg 89%
    22:00 +15°C° 0.7 mm 2 m/S 716 mmHg 92%
    23:00 +13°C° 0.5 mm 3 m/S 716 mmHg 91%

    übermorgen, 8 Juni, Montag

    Zeit Temperatur Niederschläge Wind Luftdruck Luftfeuchtigkeit
    00:00 +13°C° 0.5 mm 3 m/S 716 mmHg 91%
    01:00 +12°C° 0.5 mm 3 m/S 716 mmHg 90%
    02:00 +12°C° 0.1 mm 3 m/S 717 mmHg 89%
    03:00 +12°C° 0.1 mm 3 m/S 717 mmHg 88%
    04:00 +13°C° 0.1 mm 2 m/S 717 mmHg 87%
    05:00 +13°C° 0.1 mm 2 m/S 717 mmHg 86%
    06:00 +13°C° 0.1 mm 2 m/S 718 mmHg 86%
    07:00 +14°C° 0.1 mm 2 m/S 718 mmHg 85%
    08:00 +14°C° 0.1 mm 1 m/S 719 mmHg 83%
    09:00 +15°C° 0.1 mm 1 m/S 719 mmHg 81%
    10:00 +15°C° 0.1 mm 1 m/S 719 mmHg 79%
    11:00 +15°C° 0 mm 1 m/S 719 mmHg 78%
    12:00 +16°C° 0 mm 1 m/S 719 mmHg 77%
    13:00 +16°C° 0 mm 1 m/S 719 mmHg 76%
    14:00 +16°C° 0 mm 1 m/S 719 mmHg 75%
    15:00 +18°C° 0 mm 1 m/S 719 mmHg 73%
    16:00 +18°C° 0 mm 1 m/S 719 mmHg 72%
    17:00 +18°C° 0 mm 1 m/S 719 mmHg 75%
    18:00 +18°C° 0 mm 1 m/S 719 mmHg 78%
    19:00 +16°C° 0 mm 1 m/S 719 mmHg 80%
    20:00 +16°C° 0 mm 1 m/S 719 mmHg 83%
    21:00 +15°C° 0 mm 1 m/S 719 mmHg 86%
    22:00 +14°C° 0 mm 1 m/S 719 mmHg 88%
    23:00 +13°C° 0 mm 2 m/S 719 mmHg 89%

    9 Juni, Dienstag

    Zeit Temperatur Niederschläge Wind Luftdruck Luftfeuchtigkeit
    00:00 +13°C° 0 mm 2 m/S 719 mmHg 90%
    01:00 +12°C° 0 mm 2 m/S 719 mmHg 91%
    02:00 +12°C° 0 mm 2 m/S 719 mmHg 92%
    03:00 +12°C° 0 mm 2 m/S 719 mmHg 92%
    04:00 +10°C° 0 mm 2 m/S 719 mmHg 93%
    05:00 +13°C° 0 mm 2 m/S 719 mmHg 87%
    06:00 +14°C° 0 mm 2 m/S 719 mmHg 82%
    07:00 +15°C° 0 mm 2 m/S 720 mmHg 76%
    08:00 +17°C° 0 mm 2 m/S 720 mmHg 71%
    09:00 +18°C° 0 mm 2 m/S 720 mmHg 65%
    10:00 +20°C° 0 mm 2 m/S 720 mmHg 59%
    11:00 +20°C° 0 mm 2 m/S 720 mmHg 59%
    12:00 +21°C° 0 mm 2 m/S 720 mmHg 58%
    13:00 +21°C° 0 mm 2 m/S 719 mmHg 57%
    14:00 +21°C° 0 mm 2 m/S 719 mmHg 59%
    15:00 +21°C° 0 mm 3 m/S 719 mmHg 62%
    16:00 +21°C° 0 mm 3 m/S 718 mmHg 64%
    17:00 +20°C° 0 mm 2 m/S 718 mmHg 70%
    18:00 +19°C° 0 mm 2 m/S 718 mmHg 76%
    19:00 +18°C° 0 mm 2 m/S 718 mmHg 82%
    20:00 +16°C° 0 mm 2 m/S 719 mmHg 86%
    21:00 +15°C° 0 mm 2 m/S 719 mmHg 90%
    22:00 +14°C° 0 mm 2 m/S 719 mmHg 94%
    23:00 +14°C° 0 mm 2 m/S 719 mmHg 94%

    10 Juni, Mittwoch

    Zeit Temperatur Niederschläge Wind Luftdruck Luftfeuchtigkeit
    00:00 +14°C° 0 mm 2 m/S 719 mmHg 94%
    01:00 +13°C° 0 mm 2 m/S 719 mmHg 94%
    02:00 +13°C° 0 mm 2 m/S 718 mmHg 94%
    03:00 +13°C° 0 mm 2 m/S 718 mmHg 93%
    04:00 +13°C° 0 mm 2 m/S 718 mmHg 93%
    05:00 +14°C° 0 mm 2 m/S 719 mmHg 89%
    06:00 +15°C° 0 mm 2 m/S 719 mmHg 84%
    07:00 +17°C° 0 mm 2 m/S 719 mmHg 80%
    08:00 +18°C° 0.1 mm 2 m/S 719 mmHg 77%
    09:00 +19°C° 0.1 mm 2 m/S 719 mmHg 74%
    10:00 +20°C° 0.1 mm 2 m/S 720 mmHg 72%
    11:00 +19°C° 0.4 mm 2 m/S 719 mmHg 75%
    12:00 +19°C° 0.4 mm 2 m/S 719 mmHg 78%
    13:00 +19°C° 0.4 mm 2 m/S 719 mmHg 81%
    14:00 +19°C° 0.3 mm 2 m/S 719 mmHg 80%
    15:00 +19°C° 0.3 mm 2 m/S 719 mmHg 80%
    16:00 +20°C° 0.3 mm 2 m/S 719 mmHg 79%
    17:00 +19°C° 0.8 mm 3 m/S 719 mmHg 82%
    18:00 +18°C° 0.8 mm 3 m/S 719 mmHg 86%
    19:00 +17°C° 0.8 mm 3 m/S 719 mmHg 90%
    20:00 +17°C° 0.3 mm 3 m/S 719 mmHg 91%
    21:00 +16°C° 0.3 mm 3 m/S 719 mmHg 92%
    22:00 +14°C° 0.3 mm 3 m/S 720 mmHg 93%
    23:00 +14°C° 0.1 mm 3 m/S 720 mmHg 93%

    11 Juni, Donnerstag

    Zeit Temperatur Niederschläge Wind Luftdruck Luftfeuchtigkeit
    00:00 +14°C° 0.1 mm 3 m/S 720 mmHg 93%
    01:00 +14°C° 0.1 mm 3 m/S 720 mmHg 93%
    02:00 +14°C° 0.1 mm 3 m/S 720 mmHg 93%
    03:00 +14°C° 0.1 mm 3 m/S 719 mmHg 93%
    04:00 +14°C° 0.1 mm 3 m/S 719 mmHg 92%
    05:00 +14°C° 0.1 mm 3 m/S 720 mmHg 92%
    06:00 +14°C° 0.1 mm 3 m/S 720 mmHg 91%
    07:00 +14°C° 0.1 mm 3 m/S 720 mmHg 90%
    08:00 +16°C° 0.1 mm 3 m/S 720 mmHg 88%
    09:00 +16°C° 0.1 mm 3 m/S 720 mmHg 86%
    10:00 +17°C° 0.1 mm 3 m/S 720 mmHg 85%
    11:00 +17°C° 0.1 mm 4 m/S 720 mmHg 82%
    12:00 +18°C° 0.1 mm 4 m/S 720 mmHg 79%
    13:00 +17°C° 0.1 mm 5 m/S 720 mmHg 76%
    14:00 +17°C° 0.1 mm 5 m/S 720 mmHg 73%
    15:00 +19°C° 0.1 mm 5 m/S 720 mmHg 71%
    16:00 +19°C° 0.1 mm 6 m/S 720 mmHg 69%
    17:00 +17°C° 0.1 mm 5 m/S 720 mmHg 72%
    18:00 +16°C° 0.1 mm 5 m/S 720 mmHg 76%
    19:00 +14°C° 0.1 mm 5 m/S 720 mmHg 79%
    20:00 +14°C° 0 mm 5 m/S 720 mmHg 79%
    21:00 +14°C° 0 mm 4 m/S 720 mmHg 78%
    22:00 +14°C° 0 mm 4 m/S 720 mmHg 77%
    23:00 +14°C° 0.1 mm 4 m/S 720 mmHg 80%
    Mehr zeigen